period_start,C,m1,H,J0,J1,J2,J3,J4,J5,JA,JB,JC,JD,JJ,JK,JN,#
2014-07-14 00:04:41,-0.00,0.64,0.00,25.79,30.22,32.53,9.21,36.33,1001.26,2027.90,3259.98,3107.08,3364.05,499.49,484.12,43.63,0000 0000 0000 0000 000000
2014-07-14 00:09:42,0.00,0.64,0.00,25.81,30.23,32.69,9.31,36.77,1001.33,2027.92,3259.96,3107.05,3364.04,500.09,484.79,43.67,0000 0000 0000 0000 000000
2014-07-14 00:14:43,0.00,0.64,0.00,25.84,30.23,32.74,9.29,36.67,1001.40,2027.92,3259.90,3107.06,3364.04,499.42,484.01,43.72,0000 0000 0000 0000 000000
2014-07-14 00:19:45,0.01,0.64,0.00,25.81,30.23,32.76,9.30,36.48,1001.47,2027.95,3259.88,3107.07,3364.04,500.03,484.68,43.76,0000 0000 0000 0000 000000
2014-07-14 00:24:46,-0.00,0.64,0.00,25.79,30.23,32.80,9.26,36.19,1001.48,2027.93,3259.80,3107.03,3364.01,499.16,484.13,43.80,0000 0000 0000 0000 000000
2014-07-14 00:29:47,-0.00,0.64,0.00,25.74,30.23,32.86,9.39,36.33,1001.48,2027.94,3259.89,3107.06,3364.03,499.97,485.01,43.84,0000 0000 0000 0000 000000
2014-07-14 00:34:48,-0.00,0.64,0.00,25.69,30.22,32.95,9.36,36.13,1001.50,2027.94,3259.91,3107.17,3364.06,500.12,485.11,43.88,0000 0000 0000 0000 000000
2014-07-14 00:39:49,-0.01,0.64,0.00,25.64,30.22,32.97,9.33,36.19,1001.48,2027.97,3259.97,3107.54,3364.20,499.79,484.86,43.92,0000 0000 0000 0000 000000
2014-07-14 00:44:50,-0.01,0.64,0.00,25.65,30.21,33.05,9.32,36.27,1001.48,2027.98,3259.99,3107.85,3364.56,499.55,484.63,43.97,0000 0000 0000 0000 000000
2014-07-14 00:49:51,-0.00,0.64,0.00,25.64,30.20,32.93,9.35,36.30,1001.50,2027.98,3259.99,3107.95,3364.82,500.37,485.36,44.01,0000 0000 0000 0000 000000
2014-07-14 00:54:53,0.00,0.64,0.00,25.66,30.20,32.82,9.41,36.14,1001.49,2027.99,3259.99,3107.96,3364.91,500.43,485.31,44.05,0000 0000 0000 0000 000000
2014-07-14 00:59:54,-0.00,0.64,0.00,25.61,30.19,32.78,9.32,36.26,1001.50,2027.99,3259.99,3107.97,3364.94,500.06,485.21,44.09,0000 0000 0000 0000 000000
2014-07-14 01:04:56,0.00,0.64,0.00,25.65,30.17,32.78,9.38,36.29,1001.53,2027.99,3259.99,3107.96,3364.87,499.93,485.04,44.13,0000 0000 0000 0000 000000
2014-07-14 01:09:57,0.00,0.64,0.00,25.62,30.17,32.77,9.35,36.21,1001.54,2027.99,3259.99,3107.97,3364.77,499.62,484.66,44.17,0000 0000 0000 0000 000000
2014-07-14 01:14:58,0.00,0.64,0.00,25.60,30.17,32.72,9.33,36.28,1001.57,2027.99,3259.98,3107.95,3364.81,499.67,484.76,44.22,0000 0000 0000 0000 000000
2014-07-14 01:19:59,0.00,0.64,0.00,25.63,30.17,32.76,9.28,36.33,1001.82,2027.99,3259.98,3107.97,3364.89,499.85,485.06,44.26,0000 0000 0000 0000 000000
2014-07-14 01:25:00,0.00,0.64,0.00,25.64,30.17,32.79,9.38,36.27,1001.93,2027.99,3259.99,3107.97,3364.86,500.15,485.25,44.30,0000 0000 0000 0000 000000
2014-07-14 01:30:02,0.00,0.64,0.00,25.66,30.17,32.80,9.28,37.52,1001.93,2027.99,3259.99,3107.97,3364.89,500.16,485.13,44.34,0000 0000 0000 0000 000000
2014-07-14 01:35:02,0.00,0.64,0.00,25.75,30.17,32.90,9.32,38.53,1001.95,2027.99,3259.98,3107.93,3364.85,499.91,485.10,44.38,0000 0000 0000 0000 000000
2014-07-14 01:40:03,0.00,0.64,0.00,25.78,30.17,32.88,9.36,38.62,1001.95,2027.99,3259.99,3107.95,3364.89,500.05,485.16,44.42,0000 0000 0000 0000 000000
2014-07-14 01:45:04,0.00,0.64,0.00,25.83,30.17,32.84,9.38,38.53,1001.97,2027.99,3259.98,3107.94,3364.86,500.04,484.88,44.47,0000 0000 0000 0000 000000
2014-07-14 01:50:05,0.00,0.64,0.00,25.88,30.19,32.87,9.34,38.48,1001.97,2027.99,3259.98,3107.92,3364.77,500.19,485.03,44.51,0000 0000 0000 0000 000000
2014-07-14 01:55:06,0.01,0.64,0.00,25.98,30.20,32.93,9.40,38.46,1001.97,2027.99,3259.96,3107.87,3364.62,499.92,484.81,44.55,0000 0000 0000 0000 000000
2014-07-14 02:00:07,0.02,0.64,0.00,26.06,30.21,33.01,9.43,38.37,1001.99,2027.99,3259.82,3107.56,3364.24,500.44,484.97,44.59,0000 0000 0000 0000 000000
2014-07-14 02:05:08,0.02,0.64,0.00,26.07,30.22,33.03,9.35,38.38,1002.10,2027.99,3259.27,3107.15,3364.05,499.88,484.52,44.63,0000 0000 0000 0000 000000
2014-07-14 02:10:09,0.00,0.64,0.00,26.08,30.24,33.04,9.35,38.31,1002.13,2027.99,3259.01,3107.01,3364.00,500.11,484.74,44.67,0000 0000 0000 0000 000000
2014-07-14 02:15:10,0.00,0.64,0.00,26.08,30.25,33.04,9.32,38.27,1002.12,2027.99,3258.98,3107.00,3363.99,500.12,484.70,44.71,0000 0000 0000 0000 000000
2014-07-14 02:20:11,0.03,0.64,0.00,26.12,30.27,33.11,9.31,38.27,1002.22,2027.98,3258.30,3106.95,3363.63,499.85,484.45,44.76,0000 0000 0000 0000 000000
2014-07-14 02:25:12,0.01,0.64,0.00,26.15,30.29,33.12,9.26,38.33,1002.41,2027.98,3258.00,3106.71,3363.13,499.51,484.13,44.80,0000 0000 0000 0000 000000
2014-07-14 02:30:14,0.01,0.64,0.00,26.20,30.30,33.19,9.35,38.35,1002.45,2027.95,3257.99,3106.19,3363.02,499.91,484.49,44.84,0000 0000 0000 0000 000000
2014-07-14 02:35:15,0.02,0.64,0.00,26.23,30.31,33.19,9.35,38.17,1002.44,2027.92,3257.52,3106.03,3363.00,499.93,484.48,44.88,0000 0000 0000 0000 000000
2014-07-14 02:40:16,-0.01,0.65,0.00,26.24,30.32,33.21,9.32,38.35,1002.41,2027.83,3257.21,3106.00,3362.99,499.83,484.45,44.92,0000 0000 0000 0000 000000
2014-07-14 02:45:17,-0.02,0.64,0.00,26.26,30.34,33.23,9.30,38.24,1002.46,2027.58,3257.08,3106.00,3362.97,499.76,484.26,44.96,0000 0000 0000 0000 000000
2014-07-14 02:50:18,-0.01,0.64,0.00,26.26,30.35,33.22,9.36,38.30,1002.47,2027.43,3257.06,3105.98,3362.84,500.07,484.54,45.01,0000 0000 0000 0000 000000
2014-07-14 02:55:20,-0.02,0.64,0.00,26.35,30.37,33.39,9.34,38.36,1002.58,2027.17,3257.02,3105.97,3362.42,499.98,484.34,45.05,0000 0000 0000 0000 000000
2014-07-14 03:00:21,0.00,0.64,0.00,26.38,30.38,33.47,9.29,38.17,1002.69,2027.07,3257.00,3105.81,3362.12,500.09,484.51,45.09,0000 0000 0000 0000 000000
2014-07-14 03:05:22,0.01,0.64,0.00,26.39,30.40,33.46,9.31,38.29,1002.76,2027.01,3257.00,3105.20,3362.01,499.65,483.98,45.13,0000 0000 0000 0000 000000
2014-07-14 03:10:23,0.00,0.64,0.00,26.35,30.41,33.49,9.34,38.30,1002.84,2027.00,3256.96,3105.04,3362.00,500.16,484.81,45.17,0000 0000 0000 0000 000000
2014-07-14 03:15:25,-0.00,0.64,0.00,26.33,30.42,33.49,9.31,38.09,1002.93,2027.00,3256.93,3105.02,3361.99,500.17,484.82,45.21,0000 0000 0000 0000 000000
2014-07-14 03:20:25,0.00,0.64,0.00,26.31,30.43,33.50,9.37,38.21,1002.94,2027.01,3256.87,3105.02,3361.99,500.09,484.67,45.26,0000 0000 0000 0000 000000
2014-07-14 03:25:26,0.00,0.64,0.00,26.32,30.45,33.49,9.32,37.98,1002.95,2027.00,3256.64,3105.00,3361.98,499.42,483.99,45.30,0000 0000 0000 0000 000000
2014-07-14 03:30:27,-0.00,0.64,0.00,26.30,30.45,33.51,9.34,37.95,1002.97,2027.00,3256.74,3105.00,3361.97,499.76,484.44,45.34,0000 0000 0000 0000 000000
2014-07-14 03:35:28,0.00,0.64,0.00,26.34,30.45,33.50,9.38,37.82,1003.04,2027.00,3256.67,3105.00,3361.92,500.32,484.92,45.38,0000 0000 0000 0000 000000
2014-07-14 03:40:29,-0.00,0.64,0.00,26.35,30.45,33.49,9.40,37.89,1003.24,2027.00,3256.67,3105.00,3361.89,500.58,485.24,45.42,0000 0000 0000 0000 000000
2014-07-14 03:45:30,-0.00,0.64,0.00,26.35,30.45,33.46,9.29,37.92,1003.39,2026.98,3256.71,3105.00,3361.90,499.98,484.71,45.46,0000 0000 0000 0000 000000
2014-07-14 03:50:31,0.00,0.64,0.00,26.35,30.45,33.46,9.36,37.92,1003.43,2026.99,3256.80,3105.00,3361.93,500.18,484.86,45.51,0000 0000 0000 0000 000000
2014-07-14 03:55:32,-0.00,0.64,0.00,26.36,30.45,33.43,9.35,37.89,1003.43,2026.99,3256.81,3105.00,3361.93,499.73,484.42,45.55,0000 0000 0000 0000 000000
2014-07-14 04:00:33,-0.00,0.64,0.00,26.37,30.44,33.42,9.36,38.17,1003.43,2026.99,3256.92,3105.00,3361.95,500.09,484.83,45.59,0000 0000 0000 0000 000000
2014-07-14 04:05:35,0.00,0.64,0.00,26.38,30.42,33.37,9.23,38.07,1003.45,2026.99,3256.96,3105.00,3361.95,499.53,484.40,45.63,0000 0000 0000 0000 000000
2014-07-14 04:10:36,0.00,0.64,0.00,26.39,30.42,33.37,9.28,38.15,1003.45,2026.99,3256.98,3105.00,3361.95,499.77,484.42,45.67,0000 0000 0000 0000 000000
2014-07-14 04:15:37,0.00,0.64,0.00,26.39,30.42,33.37,9.38,38.01,1003.44,2026.98,3256.97,3105.00,3361.96,500.19,484.90,45.71,0000 0000 0000 0000 000000
2014-07-14 04:20:38,0.00,0.64,0.00,26.40,30.42,33.36,9.28,38.06,1003.44,2026.98,3256.98,3105.00,3361.97,500.04,484.63,45.75,0000 0000 0000 0000 000000
2014-07-14 04:25:39,0.00,0.64,0.00,26.42,30.40,33.35,9.33,38.40,1003.43,2026.98,3256.96,3105.00,3361.96,499.74,484.47,45.80,0000 0000 0000 0000 000000
2014-07-14 04:30:41,0.00,0.64,0.00,26.42,30.40,33.35,9.35,38.07,1003.44,2026.99,3256.85,3105.00,3361.94,499.82,484.52,45.84,0000 0000 0000 0000 000000
2014-07-14 04:35:42,0.01,0.64,0.00,26.44,30.40,33.35,9.36,38.23,1003.49,2026.99,3256.43,3105.00,3361.87,500.73,485.29,45.88,0000 0000 0000 0000 000000
2014-07-14 04:40:44,-0.00,0.64,0.00,26.46,30.40,33.28,9.35,38.20,1003.46,2026.98,3256.40,3105.00,3361.79,499.66,484.33,45.92,0000 0000 0000 0000 000000
2014-07-14 04:45:45,-0.00,0.64,0.00,26.46,30.39,33.27,9.31,38.06,1003.59,2026.99,3256.55,3105.00,3361.87,499.85,484.50,45.96,0000 0000 0000 0000 000000
2014-07-14 04:50:46,-0.00,0.64,0.00,26.45,30.38,33.27,9.29,38.23,1003.79,2026.99,3256.77,3105.00,3361.92,499.92,484.73,46.00,0000 0000 0000 0000 000000
2014-07-14 04:55:47,0.00,0.64,0.00,26.46,30.38,33.29,9.43,38.08,1003.92,2026.99,3256.68,3105.00,3361.90,500.23,485.02,46.05,0000 0000 0000 0000 000000
2014-07-14 05:00:48,0.01,0.64,0.00,26.41,30.37,33.17,9.37,38.25,1003.92,2026.99,3256.42,3105.00,3361.68,500.37,485.28,46.09,0000 0000 0000 0000 000000
2014-07-14 05:05:50,0.00,0.64,0.00,26.43,30.39,32.95,9.29,38.38,1004.02,2026.98,3256.50,3104.99,3361.22,500.06,485.02,46.13,0000 0000 0000 0000 000000
2014-07-14 05:10:51,0.01,0.64,0.00,26.45,30.41,32.90,9.37,38.45,1004.30,2026.91,3256.32,3104.86,3361.04,499.98,484.91,46.17,0000 0000 0000 0000 000000
2014-07-14 05:15:52,-0.00,0.64,0.00,26.42,30.43,32.90,9.29,38.71,1004.39,2026.72,3256.07,3104.42,3361.00,499.79,484.90,46.21,0000 0000 0000 0000 000000
2014-07-14 05:20:53,-0.02,0.64,0.00,26.39,30.45,32.93,9.34,38.52,1004.41,2026.42,3256.00,3104.04,3360.99,500.11,485.35,46.25,0000 0000 0000 0000 000000
2014-07-14 05:25:55,-0.02,0.64,0.00,26.35,30.47,32.94,9.39,38.56,1004.42,2026.19,3255.99,3104.01,3360.82,500.44,485.84,46.30,0000 0000 0000 0000 000000
2014-07-14 05:30:55,0.01,0.64,0.00,26.31,30.49,32.97,9.33,38.35,1004.50,2026.06,3255.61,3103.99,3360.16,499.65,485.19,46.34,0000 0000 0000 0000 000000
2014-07-14 05:35:57,0.01,0.64,0.00,26.26,30.50,32.96,9.28,38.23,1004.76,2026.01,3255.05,3103.85,3360.01,499.36,485.19,46.38,0000 0000 0000 0000 000000
2014-07-14 05:40:58,0.00,0.64,0.00,26.21,30.52,32.98,9.37,38.27,1004.89,2026.00,3255.01,3103.69,3360.00,499.96,485.62,46.42,0000 0000 0000 0000 000000
2014-07-14 05:45:59,0.01,0.64,0.00,26.17,30.52,32.98,9.40,38.27,1004.90,2026.00,3255.00,3103.31,3360.00,499.81,485.74,46.46,0000 0000 0000 0000 000000
2014-07-14 05:51:00,0.00,0.64,0.00,26.17,30.52,32.94,9.36,38.16,1004.91,2025.99,3255.00,3103.07,3359.98,500.25,486.09,46.50,0000 0000 0000 0000 000000
2014-07-14 05:56:01,0.00,0.64,0.00,26.21,30.53,32.90,9.38,38.15,1004.92,2025.99,3254.97,3103.01,3359.92,499.86,485.68,46.55,0000 0000 0000 0000 000000
2014-07-14 06:01:02,0.01,0.64,0.00,26.27,30.55,32.90,9.41,38.23,1004.92,2025.99,3254.90,3103.01,3359.69,500.21,485.80,46.59,0000 0000 0000 0000 000000
2014-07-14 06:06:04,0.01,0.65,0.00,26.35,30.55,32.87,9.36,37.92,1005.15,2025.99,3254.69,3103.00,3359.21,500.39,485.75,46.63,0000 0000 0000 0000 000000
2014-07-14 06:11:05,0.01,0.65,0.00,26.42,30.55,32.86,9.43,38.20,1005.37,2025.98,3254.08,3102.98,3359.02,500.19,485.82,46.67,0000 0000 0000 0000 000000
2014-07-14 06:16:06,-0.00,0.65,0.00,26.48,30.57,32.87,9.31,38.17,1005.39,2025.98,3254.04,3102.98,3359.00,499.86,485.45,46.71,0000 0000 0000 0000 000000
2014-07-14 06:21:07,0.00,0.65,0.00,26.56,30.57,32.88,9.25,37.94,1005.39,2025.96,3254.00,3102.84,3359.00,499.54,485.01,46.75,0000 0000 0000 0000 000000
2014-07-14 06:26:08,0.01,0.65,0.00,26.61,30.60,32.89,9.25,37.93,1005.50,2025.94,3254.00,3102.48,3358.99,500.17,485.54,46.79,0000 0000 0000 0000 000000
2014-07-14 06:31:09,0.01,0.65,0.00,26.67,30.61,32.92,9.29,37.94,1005.61,2025.89,3253.85,3102.08,3358.81,500.33,485.58,46.84,0000 0000 0000 0000 000000
2014-07-14 06:36:11,0.00,0.65,0.00,26.71,30.63,32.94,9.33,37.92,1005.69,2025.76,3253.24,3102.00,3358.16,499.88,485.17,46.88,0000 0000 0000 0000 000000
2014-07-14 06:41:12,-0.03,0.65,0.00,26.75,30.66,32.97,9.38,38.05,1005.68,2025.36,3253.02,3101.99,3358.00,499.83,485.07,46.92,0000 0000 0000 0000 000000
2014-07-14 06:46:13,-0.02,0.65,0.00,26.77,30.68,32.99,9.30,37.89,1005.47,2025.10,3253.01,3101.92,3358.00,500.10,485.09,46.96,0000 0000 0000 0000 000000
2014-07-14 06:51:14,0.01,0.65,0.00,26.81,30.70,33.02,9.37,37.98,1005.52,2025.06,3253.00,3101.74,3357.97,499.91,484.86,47.00,0000 0000 0000 0000 000000
2014-07-14 06:56:16,0.02,0.65,0.00,26.83,30.73,33.06,9.39,37.96,1005.80,2025.01,3252.85,3101.15,3357.73,500.12,485.53,47.04,0000 0000 0000 0000 000000
2014-07-14 07:01:17,0.02,0.65,0.00,26.85,30.76,33.08,9.27,38.09,1005.86,2025.00,3252.37,3101.01,3357.13,499.52,484.68,47.09,0000 0000 0000 0000 000000
2014-07-14 07:06:18,0.00,0.65,0.00,26.86,30.78,33.13,9.36,37.77,1005.87,2025.00,3252.02,3100.97,3357.00,500.17,485.28,47.13,0000 0000 0000 0000 000000
2014-07-14 07:11:19,0.00,0.65,0.00,26.89,30.81,33.15,9.27,37.77,1005.87,2024.98,3252.00,3100.88,3356.98,499.78,484.93,47.17,0000 0000 0000 0000 000000
2014-07-14 07:16:20,0.03,0.65,0.00,26.91,30.83,33.18,9.28,37.64,1005.89,2024.91,3251.99,3100.37,3356.72,500.15,485.19,47.21,0000 0000 0000 0000 000000
2014-07-14 07:21:21,-0.01,0.65,0.00,26.94,30.86,33.20,9.29,37.55,1005.89,2024.75,3251.94,3100.02,3356.12,500.02,484.75,47.25,0000 0000 0000 0000 000000
2014-07-14 07:26:22,-0.03,0.65,0.00,26.95,30.88,33.23,9.30,37.83,1005.90,2024.40,3251.58,3100.00,3356.01,499.57,484.57,47.29,0000 0000 0000 0000 000000
2014-07-14 07:31:23,-0.02,0.65,0.00,26.98,30.90,33.25,9.36,38.02,1005.89,2024.10,3251.09,3099.99,3356.00,500.40,485.18,47.33,0000 0000 0000 0000 000000
2014-07-14 07:36:25,0.01,0.65,0.00,26.99,30.93,33.28,9.28,38.03,1005.98,2024.01,3251.00,3099.78,3355.86,499.80,484.52,47.38,0000 0000 0000 0000 000000
2014-07-14 07:41:25,0.05,0.65,0.00,27.02,30.95,33.30,9.21,38.03,1005.90,2024.00,3250.69,3099.05,3355.07,499.55,484.46,47.42,0000 0000 0000 0000 000000
2014-07-14 07:46:26,0.01,0.65,0.00,27.05,30.97,33.33,9.28,38.34,1005.89,2024.00,3250.07,3099.00,3355.00,499.78,484.76,47.46,0000 0000 0000 0000 000000
2014-07-14 07:51:28,0.00,0.65,0.00,27.07,31.00,33.35,9.31,38.46,1005.89,2023.98,3249.99,3098.94,3354.92,499.99,484.69,47.50,0000 0000 0000 0000 000000
2014-07-14 07:56:29,0.03,0.65,0.00,27.06,31.02,33.38,9.24,38.32,1005.97,2023.98,3249.85,3098.43,3354.37,499.63,484.59,47.54,0000 0000 0000 0000 000000
2014-07-14 08:01:30,0.02,0.65,0.00,27.09,31.05,33.41,9.33,38.04,1006.18,2023.92,3249.16,3098.02,3354.02,499.74,484.61,47.58,0000 0000 0000 0000 000000
2014-07-14 08:06:31,-0.01,0.65,0.00,27.13,31.07,33.43,9.28,38.14,1006.35,2023.83,3249.01,3098.00,3354.00,499.82,484.83,47.63,0000 0000 0000 0000 000000
2014-07-14 08:11:33,-0.04,0.65,0.00,27.12,31.10,33.45,9.32,38.09,1006.37,2023.40,3248.99,3097.98,3353.97,500.28,485.24,47.67,0000 0000 0000 0000 000000
2014-07-14 08:16:34,0.00,0.65,0.00,27.13,31.12,33.48,9.38,37.79,1006.39,2023.25,3248.76,3097.78,3353.63,500.17,485.02,47.71,0000 0000 0000 0000 000000
2014-07-14 08:21:35,0.01,0.65,0.00,27.14,31.14,33.50,9.36,38.13,1006.45,2023.02,3248.10,3097.10,3353.03,500.46,485.30,47.75,0000 0000 0000 0000 000000
2014-07-14 08:26:36,0.00,0.65,0.00,27.12,31.16,33.52,9.29,37.98,1006.63,2023.00,3247.99,3097.00,3352.99,500.14,485.14,47.79,0000 0000 0000 0000 000000
2014-07-14 08:31:37,0.03,0.65,0.00,27.13,31.18,33.52,9.37,37.99,1006.84,2023.00,3247.36,3096.81,3352.44,500.38,485.58,47.83,0000 0000 0000 0000 000000
2014-07-14 08:36:39,0.03,0.65,0.00,27.12,31.20,33.56,9.39,37.98,1006.85,2023.00,3246.98,3096.10,3352.01,499.93,485.35,47.88,0000 0000 0000 0000 000000
2014-07-14 08:41:40,0.00,0.65,0.00,27.13,31.22,33.58,9.35,37.39,1006.85,2023.00,3246.80,3096.00,3351.99,500.23,485.38,47.92,0000 0000 0000 0000 000000
2014-07-14 08:46:40,0.03,0.65,0.00,27.14,31.24,33.59,9.42,38.08,1006.87,2022.98,3246.06,3095.91,3351.33,500.04,485.38,47.96,0000 0000 0000 0000 000000
2014-07-14 08:51:42,-0.00,0.65,0.00,27.15,31.25,33.61,9.26,36.77,1006.98,2022.92,3245.99,3095.72,3351.03,499.62,484.92,48.00,0000 0000 0000 0000 000000
2014-07-14 08:56:43,0.02,0.66,0.00,27.15,31.27,33.63,9.18,37.21,1007.21,2022.89,3245.96,3095.20,3351.00,499.22,484.54,48.04,0000 0000 0000 0000 000000
2014-07-14 09:01:44,-0.02,0.65,0.00,27.15,31.29,33.63,9.37,36.95,1007.30,2022.75,3245.83,3095.09,3350.99,500.66,485.83,48.08,0000 0000 0000 0000 000000
2014-07-14 09:06:45,-0.02,0.65,0.00,27.13,31.30,33.64,9.31,37.32,1007.33,2022.38,3245.20,3095.01,3350.73,499.60,484.97,48.13,0000 0000 0000 0000 000000
2014-07-14 09:11:46,-0.01,0.65,0.00,27.14,31.32,33.66,9.33,37.13,1007.30,2022.22,3245.01,3094.99,3350.17,500.05,485.43,48.17,0000 0000 0000 0000 000000
2014-07-14 09:16:47,0.02,0.65,0.00,27.14,31.32,33.67,9.31,37.82,1007.34,2022.05,3244.84,3094.57,3350.00,500.55,485.95,48.21,0000 0000 0000 0000 000000
2014-07-14 09:21:48,0.01,0.65,0.00,27.15,31.34,33.69,9.22,37.21,1007.33,2022.03,3244.39,3094.13,3349.98,499.26,484.58,48.25,0000 0000 0000 0000 000000
2014-07-14 09:26:50,0.01,0.66,0.00,27.13,31.35,33.69,9.37,37.50,1007.34,2022.01,3244.02,3094.02,3349.72,500.05,485.36,48.29,0000 0000 0000 0000 000000
2014-07-14 09:31:51,0.01,0.66,0.00,27.10,31.35,33.70,9.39,37.83,1007.34,2022.00,3243.99,3094.00,3349.17,499.81,485.40,48.34,0000 0000 0000 0000 000000
2014-07-14 09:36:52,0.00,0.66,0.00,27.11,31.37,33.70,9.30,37.42,1007.34,2022.00,3243.95,3093.99,3349.03,500.01,485.38,48.38,0000 0000 0000 0000 000000
2014-07-14 09:41:53,0.00,0.66,0.00,27.09,31.37,33.70,9.42,37.24,1007.35,2022.00,3243.80,3093.97,3349.00,500.53,485.73,48.42,0000 0000 0000 0000 000000
2014-07-14 09:46:54,0.01,0.66,0.00,27.10,31.37,33.71,9.37,37.13,1007.35,2022.00,3243.37,3093.85,3349.00,499.69,485.18,48.46,0000 0000 0000 0000 000000
2014-07-14 09:51:56,0.02,0.66,0.00,27.07,31.38,33.71,9.36,37.34,1007.35,2022.00,3243.04,3093.36,3348.96,500.20,485.73,48.50,0000 0000 0000 0000 000000
2014-07-14 09:56:57,0.01,0.66,0.00,27.09,31.39,33.74,9.34,37.41,1007.41,2021.99,3243.00,3093.08,3348.80,500.17,485.52,48.54,0000 0000 0000 0000 000000
2014-07-14 10:01:58,0.00,0.66,0.00,27.09,31.40,33.73,9.39,37.65,1007.38,2021.98,3243.00,3093.05,3348.63,500.29,485.54,48.59,0000 0000 0000 0000 000000
2014-07-14 10:06:59,0.01,0.66,0.00,27.08,31.40,33.73,9.29,37.01,1007.38,2021.96,3242.98,3093.01,3348.12,499.37,484.83,48.63,0000 0000 0000 0000 000000
2014-07-14 10:12:00,0.00,0.66,0.00,27.10,31.40,33.74,9.36,37.30,1007.53,2021.97,3242.91,3093.00,3348.04,499.79,485.31,48.67,0000 0000 0000 0000 000000
2014-07-14 10:17:01,0.00,0.66,0.00,27.07,31.40,33.74,9.35,38.42,1007.78,2021.96,3242.58,3093.00,3348.00,500.27,486.00,48.71,0000 0000 0000 0000 000000
2014-07-14 10:22:03,0.00,0.66,0.00,27.04,31.40,33.74,9.37,38.41,1007.82,2021.95,3242.45,3092.99,3348.00,499.98,485.75,48.75,0000 0000 0000 0000 000000
2014-07-14 10:27:04,0.00,0.66,0.00,27.03,31.40,33.72,9.38,38.08,1007.84,2021.95,3242.31,3092.99,3348.00,500.26,486.04,48.79,0000 0000 0000 0000 000000
2014-07-14 10:32:05,0.00,0.66,0.00,27.02,31.41,33.73,9.41,38.22,1007.89,2021.95,3242.12,3092.98,3348.00,500.58,486.34,48.84,0000 0000 0000 0000 000000
2014-07-14 10:37:06,-0.00,0.66,0.00,27.00,31.41,33.73,9.39,37.69,1008.17,2021.92,3242.00,3092.96,3348.00,500.08,486.06,48.88,0000 0000 0000 0000 000000
2014-07-14 10:42:07,0.00,0.66,0.00,26.97,31.42,33.72,9.24,37.28,1008.29,2021.95,3242.02,3092.97,3347.99,499.70,485.80,48.92,0000 0000 0000 0000 000000
2014-07-14 10:47:08,-0.00,0.66,0.00,27.00,31.42,33.73,9.35,38.04,1008.31,2021.93,3242.01,3092.94,3347.98,500.05,486.17,48.96,0000 0000 0000 0000 000000
2014-07-14 10:52:09,0.01,0.66,0.00,26.98,31.42,33.73,9.32,38.14,1008.31,2021.96,3242.00,3092.95,3347.97,499.88,485.92,49.00,0000 0000 0000 0000 000000
2014-07-14 10:57:10,-0.00,0.66,0.00,26.96,31.41,33.73,9.38,38.12,1008.31,2021.94,3241.94,3092.83,3347.89,499.78,486.14,49.04,0000 0000 0000 0000 000000
2014-07-14 11:02:11,0.06,0.66,0.00,26.95,31.40,33.73,9.43,37.98,1008.32,2021.94,3241.09,3092.06,3347.09,500.20,486.27,49.09,0000 0000 0000 0000 000000
2014-07-14 11:07:13,-0.01,0.66,0.00,26.95,31.40,33.73,9.34,38.01,1008.34,2021.85,3241.00,3092.00,3347.00,499.75,486.07,49.13,0000 0000 0000 0000 000000
2014-07-14 11:12:14,0.01,0.66,0.00,26.95,31.40,33.72,9.31,37.96,1008.35,2021.85,3240.88,3092.00,3347.00,499.94,485.96,49.17,0000 0000 0000 0000 000000
2014-07-14 11:17:15,0.03,0.66,0.00,26.95,31.40,33.72,9.34,37.91,1008.35,2021.88,3240.07,3091.85,3346.77,500.00,486.35,49.21,0000 0000 0000 0000 000000
2014-07-14 11:22:16,0.01,0.66,0.00,26.92,31.40,33.71,9.34,37.83,1008.42,2021.89,3240.00,3091.86,3346.77,500.03,486.28,49.25,0000 0000 0000 0000 000000
2014-07-14 11:27:17,-0.00,0.66,0.00,26.92,31.40,33.70,9.32,37.66,1008.51,2021.94,3240.00,3091.83,3346.68,499.78,486.12,49.29,0000 0000 0000 0000 000000
2014-07-14 11:32:19,0.02,0.66,0.00,26.90,31.38,33.68,9.31,37.74,1008.52,2021.93,3239.95,3091.63,3346.34,499.66,486.06,49.33,0000 0000 0000 0000 000000
2014-07-14 11:37:20,0.14,0.67,0.00,26.87,31.37,33.69,9.42,37.50,1008.68,2021.96,3237.94,3090.34,3345.16,500.06,486.59,49.38,0000 0000 0000 0000 000000
2014-07-14 11:42:21,0.12,0.67,0.00,26.87,31.37,33.69,9.34,37.22,1008.79,2021.96,3235.46,3088.72,3343.44,500.07,486.59,49.42,0000 0000 0000 0000 000000
2014-07-14 11:47:22,0.07,0.68,0.00,26.85,31.37,33.67,9.34,37.36,1008.79,2021.97,3233.81,3087.84,3342.53,499.81,486.40,49.46,0000 0000 0000 0000 000000
2014-07-14 11:52:23,0.04,0.68,0.00,26.83,31.37,33.66,9.40,37.48,1008.78,2021.98,3232.75,3087.05,3341.95,500.33,486.94,49.50,0000 0000 0000 0000 000000
2014-07-14 11:57:24,-0.00,0.68,0.00,26.84,31.36,33.66,8.39,33.32,1008.80,2021.98,3232.46,3087.00,3341.85,454.25,441.11,49.54,0000 0000 0000 0000 000009
2014-07-14 12:02:25,0.00,0.00,0.00,26.81,31.36,33.69,9.17,38.92,1008.79,2022.77,3549.64,3288.54,3581.55,485.11,472.18,0.01,0000 0000 0000 0000 000000
2014-07-14 12:07:27,0.00,0.00,0.00,26.80,31.35,33.65,9.35,39.52,1008.79,2022.68,3546.86,3287.92,3581.02,500.03,486.70,0.05,0000 0000 0000 0000 000000
2014-07-14 12:12:28,0.00,0.00,0.00,26.79,31.35,33.64,9.39,39.64,1008.80,2022.77,3546.06,3287.48,3580.42,499.80,486.52,0.09,0000 0000 0000 0000 000000
2014-07-14 12:17:29,0.01,0.00,0.00,26.77,31.32,33.62,9.37,39.49,1008.80,2022.93,3545.92,3287.18,3580.01,499.80,486.51,0.13,0000 0000 0000 0000 000000
2014-07-14 12:22:30,0.01,0.00,0.00,26.75,31.32,33.62,9.43,39.63,1008.80,2022.91,3545.13,3287.01,3579.98,500.01,486.75,0.17,0000 0000 0000 0000 000000
2014-07-14 12:27:31,0.01,0.00,0.00,26.75,31.31,33.61,9.40,39.54,1008.80,2022.88,3545.01,3287.00,3579.81,500.09,486.89,0.22,0000 0000 0000 0000 000000
2014-07-14 12:32:32,0.01,0.00,0.00,26.74,31.30,33.59,9.39,39.73,1008.79,2022.96,3545.00,3287.00,3579.54,499.83,486.64,0.26,0000 0000 0000 0000 000000
2014-07-14 12:37:33,0.00,0.00,0.00,26.71,31.30,33.59,9.43,39.63,1008.80,2022.98,3545.00,3287.03,3579.45,500.20,487.00,0.30,0000 0000 0000 0000 000000
2014-07-14 12:42:34,0.00,0.00,0.00,26.70,31.28,33.58,9.37,39.61,1008.80,2022.98,3545.00,3287.05,3579.26,499.91,486.48,0.34,0000 0000 0000 0000 000000
2014-07-14 12:47:35,0.00,0.00,0.00,26.70,31.27,33.58,9.48,39.65,1008.80,2022.98,3545.00,3287.02,3579.03,500.56,487.21,0.38,0000 0000 0000 0000 000000
2014-07-14 12:52:36,0.00,0.00,0.00,26.67,31.26,33.56,9.40,39.60,1008.80,2022.99,3544.97,3287.01,3579.00,500.00,486.89,0.43,0000 0000 0000 0000 000000
2014-07-14 12:57:37,-0.00,0.00,0.00,26.67,31.25,33.55,9.42,39.58,1008.81,2022.98,3544.95,3287.01,3579.00,499.96,486.73,0.47,0000 0000 0000 0000 000000
2014-07-14 13:02:39,0.00,0.00,0.00,26.63,31.24,33.55,9.38,39.61,1008.81,2022.98,3544.91,3287.01,3579.00,500.04,486.92,0.51,0000 0000 0000 0000 000000